Torna al catalogo

STARLINK-31729

AttivoComunicazioniVLEO
NORAD 59610·PAYLOAD·🇺🇸 United States

Lanciato Apr 28, 2024 da Cape Canaveral Space Force Station

Loading…

Prossimi Passaggi (prossime 24 ore)

TLE

AggiornatoSource: CelesTrak SupGP

Epoca: Sep 14, 2026, 20:53 UTC

1 59610C 24080K   26257.87062500  .00054636  00000+0  19761-2 0  2571
2 59610  43.0046  46.2971 0001686 285.5955  37.6551 15.27596781    18

Traccia STARLINK-31729 in tempo reale con AllMySat

Download on the App Store